Terminal Aerodrome Forecast
Issued by NWS Jackson, KY

Home | Current Version | Previous Version | Text Only | Print | Product List | Glossary On
Versions: 1 2 3 4 5 6 7 8 9 10 11 12 13 14 15 16 17 18 19 20
000
FTUS43 KJKL 220800 AAA
TAFLOZ
TAF AMD
KLOZ 220851Z 2209/2306 VRB03KT P6SM FEW040 SCT200
     FM221200 VRB05KT P6SM BKN050=

USA.gov is the U.S. government's official web portal to all federal, state and local government web resources and services.